When you browse on this site, cookies collect data to enhance your experience and personalize the content and advertising you see.
Visit our Privacy Policy to learn more. By continuing to use the site, you agree to this use of cookies and data.
  • In Czech Republic
  • List of Countries
  • For 7 days
  • Water Temperature
  • Satellite Maps
  • Weather Map
  • Weather Widgets
  • user-avatar
    Login

    Hourly Weather Bishkek

    Today, 24 January, Thursday

    Time Temperature Precipitation Wind Pressure Humidity
    00:00 -25°C° 0 mm 3 mps 477 mmHg 50%
    01:00 -25°C° 0 mm 3 mps 477 mmHg 50%
    02:00 -25°C° 0 mm 3 mps 478 mmHg 50%
    03:00 -25°C° 0 mm 3 mps 478 mmHg 51%
    04:00 -25°C° 0 mm 3 mps 478 mmHg 52%
    05:00 -26°C° 0 mm 3 mps 478 mmHg 56%
    06:00 -26°C° 0 mm 3 mps 478 mmHg 57%
    07:00 -25°C° 0 mm 3 mps 478 mmHg 58%
    08:00 -25°C° 0 mm 3 mps 479 mmHg 59%
    09:00 -23°C° 0 mm 2 mps 480 mmHg 64%
    10:00 -20°C° 0 mm 2 mps 481 mmHg 68%
    11:00 -19°C° 0 mm 2 mps 482 mmHg 72%
    12:00 -19°C° 0 mm 2 mps 482 mmHg 76%
    13:00 -18°C° 0 mm 2 mps 483 mmHg 79%
    14:00 -16°C° 0 mm 1 mps 483 mmHg 83%
    15:00 -17°C° 0.1 mm 1 mps 482 mmHg 84%
    16:00 -19°C° 0.1 mm 1 mps 481 mmHg 86%
    17:00 -20°C° 0.1 mm 1 mps 481 mmHg 87%
    18:00 -23°C° 0.1 mm 2 mps 481 mmHg 83%
    19:00 -23°C° 0.1 mm 2 mps 481 mmHg 79%
    20:00 -24°C° 0.1 mm 2 mps 481 mmHg 75%
    21:00 -25°C° 0.1 mm 3 mps 481 mmHg 74%
    22:00 -25°C° 0.1 mm 3 mps 481 mmHg 73%
    23:00 -25°C° 0.1 mm 3 mps 481 mmHg 71%

    Tomorrow, 25 January, Friday

    Time Temperature Precipitation Wind Pressure Humidity
    00:00 -25°C° 0 mm 3 mps 481 mmHg 70%
    01:00 -26°C° 0 mm 3 mps 481 mmHg 70%
    02:00 -26°C° 0 mm 3 mps 481 mmHg 69%
    03:00 -26°C° 0 mm 3 mps 481 mmHg 68%
    04:00 -26°C° 0 mm 3 mps 481 mmHg 67%
    05:00 -26°C° 0 mm 3 mps 481 mmHg 66%
    06:00 -26°C° 0 mm 3 mps 481 mmHg 65%
    07:00 -26°C° 0 mm 3 mps 481 mmHg 63%
    08:00 -26°C° 0 mm 3 mps 481 mmHg 62%
    09:00 -23°C° 0 mm 2 mps 482 mmHg 63%
    10:00 -20°C° 0 mm 2 mps 483 mmHg 65%
    11:00 -16°C° 0 mm 1 mps 484 mmHg 66%
    12:00 -16°C° 0 mm 1 mps 484 mmHg 68%
    13:00 -16°C° 0 mm 1 mps 483 mmHg 71%
    14:00 -15°C° 0 mm 1 mps 483 mmHg 73%
    15:00 -19°C° 0 mm 2 mps 482 mmHg 72%
    16:00 -20°C° 0 mm 2 mps 481 mmHg 72%
    17:00 -24°C° 0 mm 3 mps 479 mmHg 71%
    18:00 -24°C° 0 mm 3 mps 479 mmHg 63%
    19:00 -25°C° 0 mm 3 mps 479 mmHg 56%
    20:00 -25°C° 0 mm 3 mps 480 mmHg 48%
    21:00 -26°C° 0 mm 4 mps 479 mmHg 44%
    22:00 -26°C° 0 mm 4 mps 479 mmHg 40%
    23:00 -26°C° 0 mm 4 mps 479 mmHg 37%

    Day after tomorrow, 26 January, Saturday

    Time Temperature Precipitation Wind Pressure Humidity
    00:00 -26°C° 0 mm 4 mps 479 mmHg 35%
    01:00 -26°C° 0 mm 4 mps 479 mmHg 32%
    02:00 -26°C° 0 mm 4 mps 479 mmHg 30%
    03:00 -26°C° 0 mm 4 mps 479 mmHg 31%
    04:00 -26°C° 0 mm 4 mps 478 mmHg 31%
    05:00 -26°C° 0 mm 4 mps 478 mmHg 32%
    06:00 -26°C° 0 mm 4 mps 478 mmHg 35%
    07:00 -26°C° 0 mm 4 mps 478 mmHg 38%
    08:00 -26°C° 0 mm 4 mps 479 mmHg 41%
    09:00 -24°C° 0 mm 4 mps 480 mmHg 47%
    10:00 -21°C° 0 mm 3 mps 481 mmHg 53%
    11:00 -19°C° 0 mm 3 mps 482 mmHg 59%
    12:00 -18°C° 0 mm 3 mps 481 mmHg 62%
    13:00 -18°C° 0 mm 3 mps 481 mmHg 64%
    14:00 -17°C° 0 mm 2 mps 481 mmHg 66%
    15:00 -21°C° 0 mm 3 mps 480 mmHg 65%
    16:00 -22°C° 0 mm 3 mps 479 mmHg 64%
    17:00 -25°C° 0 mm 4 mps 478 mmHg 63%
    18:00 -25°C° 0 mm 4 mps 478 mmHg 59%
    19:00 -25°C° 0 mm 4 mps 479 mmHg 55%
    20:00 -26°C° 0 mm 4 mps 479 mmHg 51%
    21:00 -26°C° 0 mm 4 mps 479 mmHg 50%
    22:00 -26°C° 0 mm 4 mps 479 mmHg 49%
    23:00 -26°C° 0 mm 4 mps 479 mmHg 48%

    27 January, Sunday

    Time Temperature Precipitation Wind Pressure Humidity
    00:00 -26°C° 0 mm 4 mps 479 mmHg 47%
    01:00 -26°C° 0 mm 4 mps 479 mmHg 46%
    02:00 -26°C° 0 mm 4 mps 479 mmHg 45%
    03:00 -26°C° 0 mm 4 mps 479 mmHg 45%
    04:00 -26°C° 0 mm 4 mps 480 mmHg 45%
    05:00 -25°C° 0 mm 4 mps 480 mmHg 45%
    06:00 -25°C° 0 mm 4 mps 480 mmHg 45%
    07:00 -24°C° 0 mm 3 mps 480 mmHg 44%
    08:00 -24°C° 0 mm 3 mps 481 mmHg 43%
    09:00 -23°C° 0 mm 3 mps 482 mmHg 47%
    10:00 -19°C° 0 mm 2 mps 483 mmHg 50%
    11:00 -18°C° 0 mm 2 mps 483 mmHg 54%
    12:00 -18°C° 0 mm 2 mps 483 mmHg 56%
    13:00 -17°C° 0 mm 2 mps 483 mmHg 58%
    14:00 -17°C° 0 mm 2 mps 483 mmHg 60%
    15:00 -19°C° 0 mm 2 mps 482 mmHg 61%
    16:00 -23°C° 0 mm 3 mps 481 mmHg 62%
    17:00 -25°C° 0 mm 3 mps 479 mmHg 63%
    18:00 -26°C° 0 mm 4 mps 480 mmHg 58%
    19:00 -26°C° 0 mm 4 mps 480 mmHg 52%
    20:00 -26°C° 0 mm 4 mps 480 mmHg 47%
    21:00 -26°C° 0 mm 4 mps 480 mmHg 45%
    22:00 -25°C° 0 mm 4 mps 480 mmHg 44%
    23:00 -25°C° 0 mm 4 mps 481 mmHg 42%

    28 January, Monday

    Time Temperature Precipitation Wind Pressure Humidity
    00:00 -25°C° 0 mm 4 mps 481 mmHg 42%
    01:00 -25°C° 0 mm 4 mps 480 mmHg 41%
    02:00 -25°C° 0 mm 4 mps 480 mmHg 41%
    03:00 -25°C° 0 mm 4 mps 480 mmHg 44%
    04:00 -25°C° 0 mm 4 mps 480 mmHg 46%
    05:00 -25°C° 0 mm 4 mps 480 mmHg 49%
    06:00 -25°C° 0 mm 4 mps 481 mmHg 52%
    07:00 -24°C° 0 mm 4 mps 481 mmHg 55%
    08:00 -24°C° 0 mm 4 mps 481 mmHg 57%
    09:00 -23°C° 0 mm 4 mps 482 mmHg 60%
    10:00 -20°C° 0 mm 4 mps 482 mmHg 62%
    11:00 -19°C° 0 mm 4 mps 483 mmHg 65%
    12:00 -19°C° 0.1 mm 4 mps 483 mmHg 67%
    13:00 -18°C° 0.1 mm 3 mps 483 mmHg 69%
    14:00 -18°C° 0.1 mm 3 mps 482 mmHg 71%
    15:00 -19°C° 0.1 mm 4 mps 482 mmHg 72%
    16:00 -20°C° 0.1 mm 4 mps 481 mmHg 73%
    17:00 -22°C° 0.1 mm 4 mps 481 mmHg 74%
    18:00 -22°C° 0 mm 5 mps 481 mmHg 73%
    19:00 -24°C° 0 mm 5 mps 480 mmHg 72%
    20:00 -24°C° 0 mm 5 mps 480 mmHg 72%
    21:00 -22°C° 0 mm 5 mps 480 mmHg 71%
    22:00 -22°C° 0 mm 5 mps 481 mmHg 71%
    23:00 -21°C° 0 mm 5 mps 481 mmHg 71%

    29 January, Tuesday

    Time Temperature Precipitation Wind Pressure Humidity
    00:00 -21°C° 0.1 mm 5 mps 481 mmHg 72%
    01:00 -21°C° 0.1 mm 5 mps 480 mmHg 74%
    02:00 -21°C° 0.1 mm 5 mps 480 mmHg 75%
    03:00 -21°C° 0.3 mm 5 mps 480 mmHg 77%
    04:00 -20°C° 0.3 mm 5 mps 480 mmHg 78%
    05:00 -20°C° 0.3 mm 5 mps 480 mmHg 79%
    06:00 -20°C° 0.5 mm 5 mps 480 mmHg 79%
    07:00 -20°C° 0.5 mm 5 mps 480 mmHg 79%
    08:00 -20°C° 0.5 mm 5 mps 480 mmHg 79%
    09:00 -19°C° 0.5 mm 5 mps 480 mmHg 79%
    10:00 -18°C° 0.5 mm 5 mps 480 mmHg 79%
    11:00 -17°C° 0.5 mm 5 mps 481 mmHg 79%
    12:00 -17°C° 0.3 mm 5 mps 480 mmHg 79%
    13:00 -15°C° 0.3 mm 4 mps 480 mmHg 79%
    14:00 -15°C° 0.3 mm 4 mps 480 mmHg 79%
    15:00 -15°C° 0.3 mm 4 mps 480 mmHg 79%
    16:00 -16°C° 0.3 mm 4 mps 480 mmHg 80%
    17:00 -16°C° 0.3 mm 4 mps 479 mmHg 80%
    18:00 -16°C° 0.4 mm 4 mps 479 mmHg 80%
    19:00 -15°C° 0.4 mm 3 mps 479 mmHg 81%
    20:00 -15°C° 0.4 mm 3 mps 479 mmHg 81%
    21:00 -15°C° 0.4 mm 3 mps 479 mmHg 81%
    22:00 -15°C° 0.4 mm 3 mps 479 mmHg 81%
    23:00 -15°C° 0.4 mm 3 mps 479 mmHg 81%
    Show more